Location: Piedmont
(45.8748°N, 74.1254°W)
Time: 00:26:10
(UTC+00:00)

N. Korean satellite - Pass Details

Date: 02 December 2021
Orbit: 447 x 491 km, 97.3° (Epoch: 21 January)

Event Time Altitude Azimuth Distance (km) Brightness Sun altitude
Rises 10:29:37 0° 9° (N) 2,473 10.1 -18.4°
Reaches altitude 10° 10:31:41 10° 5° (N) 1,591 9.1 -18.0°
Maximum altitude 10:35:02 60° 285° (WNW) 519 6.3 -17.5°
Drops below altitude 10° 10:38:21 10° 205° (SSW) 1,569 9.0 -16.9°
Sets 10:40:22 0° 202° (SSW) 2,436 10.1 -16.6°
